This is the latest recevied weather packets stored in our database for station/object OK3MS-5. If no packets are shown the sender has not sent any weather packets the latest 10 day(s).
| Time | Temp. | Humidity | Pressure | Rain* | Wind** | Luminosity | Snow |
|---|---|---|---|---|---|---|---|
| 1777744502 | 20° C | 32% | 1016.9 hPa | 0 mm | - | 10 W/m² | - |
| 1777744206 | 20.56° C | 31% | 1016.8 hPa | 0 mm | - | 13 W/m² | - |
| 1777743903 | 20.56° C | 31% | 1016.8 hPa | 0 mm | - | 16 W/m² | - |
| 1777743608 | 21.11° C | 30% | 1016.6 hPa | 0 mm | - | 22 W/m² | - |
| 1777743303 | 21.67° C | 29% | 1016.5 hPa | 0 mm | - | 25 W/m² | - |
| 1777743003 | 21.67° C | 27% | 1016.6 hPa | 0 mm | - | 31 W/m² | - |
| 1777742704 | 22.22° C | 28% | 1016.5 hPa | 0 mm | - | 34 W/m² | - |
| 1777742403 | 22.22° C | 28% | 1016.4 hPa | 0 mm | - | 37 W/m² | - |
| 1777742102 | 22.22° C | 27% | 1016.5 hPa | 0 mm | - | 41 W/m² | - |
| 1777741804 | 22.22° C | 26% | 1016.4 hPa | 0 mm | - | 47 W/m² | - |
| 1777741506 | 22.78° C | 27% | 1016.4 hPa | 0 mm | - | 58 W/m² | - |
| 1777741204 | 22.78° C | 26% | 1016.4 hPa | 0 mm | - | 68 W/m² | - |
| 1777740909 | 22.78° C | 26% | 1016.5 hPa | 0 mm | - | 78 W/m² | - |
| 1777740602 | 23.33° C | 27% | 1016.4 hPa | 0 mm | - | 89 W/m² | - |
| 1777740304 | 23.33° C | 28% | 1016.3 hPa | 0 mm | - | 100 W/m² | - |
| 1777740003 | 23.33° C | 28% | 1016.3 hPa | 0 mm | - | 112 W/m² | - |
| 1777739703 | 23.33° C | 27% | 1016.4 hPa | 0 mm | - | 123 W/m² | - |
| 1777739404 | 23.33° C | 26% | 1016.5 hPa | 0 mm | - | 136 W/m² | - |
| 1777739103 | 23.33° C | 27% | 1016.6 hPa | 0 mm | - | 149 W/m² | - |
| 1777738808 | 23.33° C | 29% | 1016.7 hPa | 0 mm | - | 163 W/m² | - |
| 1777738503 | 22.78° C | 28% | 1016.9 hPa | 0 mm | - | 175 W/m² | - |
| 1777738205 | 22.78° C | 27% | 1016.8 hPa | 0 mm | - | 187 W/m² | - |
| 1777737904 | 23.89° C | 28% | 1016.6 hPa | 0 mm | - | 202 W/m² | - |
| 1777737604 | 24.44° C | 24% | 1016.7 hPa | 0 mm | - | 215 W/m² | - |
| 1777737303 | 23.33° C | 26% | 1016.9 hPa | 0 mm | - | 229 W/m² | - |
* Rain latest hour (hover to see other rain measurements)
** Current wind speed in m/s (hover to see current wind gust speed)